Location: Balsareny
(41.8670°N, 1.8830°E)
Time: 07:40:25
(UTC+02:00)

X-37B - Visible Passes

Search period start: 04 August 2020 00:00
Search period end: 14 August 2020 00:00
Orbit: 384 x 389 km, 45.0° (Epoch: 29 July)

Date Brightness Start Highest point End Pass type
(mag) Time Alt. Az. Time Alt. Az. Time Alt. Az.
04 Aug ? 05:22:35 31° SSW 05:22:35 31° SSW 05:25:21 10° SE visible
05 Aug ? 22:32:42 10° SSW 22:34:06 19° S 22:34:06 19° S visible
06 Aug ? 21:35:10 10° S 21:37:01 15° SE 21:38:52 10° ESE visible
06 Aug ? 23:10:06 10° WSW 23:11:53 31° WSW 23:11:53 31° WSW visible
07 Aug ? 22:11:42 10° SW 22:14:44 45° SSE 22:16:48 18° E visible
07 Aug ? 23:48:14 10° W 23:49:07 17° W 23:49:07 17° W visible
08 Aug ? 22:49:35 10° WSW 22:52:43 71° NNW 22:53:38 42° NE visible
09 Aug ? 21:51:00 10° WSW 21:54:09 76° SSE 21:57:19 10° ENE visible
09 Aug ? 23:27:52 10° W 23:30:11 37° NW 23:30:11 37° NW visible
10 Aug ? 22:29:09 10° W 22:32:16 53° N 22:34:16 19° ENE visible
11 Aug ? 00:06:04 10° WNW 00:06:32 13° WNW 00:06:32 13° WNW visible
11 Aug ? 21:30:29 10° WSW 21:33:38 71° NNW 21:36:48 10° ENE visible
11 Aug ? 23:07:26 10° WNW 23:10:29 44° N 23:10:31 44° N visible
12 Aug ? 22:08:45 10° W 22:11:49 45° N 22:14:24 13° ENE visible
12 Aug ? 23:45:33 10° WNW 23:46:39 20° WNW 23:46:39 20° WNW visible
13 Aug ? 22:46:58 10° WNW 22:50:03 49° N 22:50:31 45° NE visible
